Overview Statistics Trail Chart Weather Telemetry Raw packets
 

This is the latest recevied weather packets stored in our database for station/object LU3HGB-WX. If no packets are shown the sender has not sent any weather packets the latest 10 day(s).

<< 32 33 34 35 36 37 38 >>
Time Temp. Humidity Pressure Rain* Wind** Luminosity Snow
1788462476 20° C 27% 1015 hPa 0 mm - 617 W/m² -
1788462159 20° C 27% 1016 hPa 0 mm - 640 W/m² -
1788461860 20° C 27% 1015 hPa 0 mm - 649 W/m² -
1788461560 20° C 30% 1015 hPa 0 mm - 665 W/m² -
1788461260 20° C 31% 1015 hPa 0 mm - 684 W/m² -
1788460960 20.56° C 30% 1015 hPa 0 mm - 698 W/m² -
1788460660 20.56° C 32% 1015 hPa 0 mm - 715 W/m² -
1788460361 20.56° C 31% 1016 hPa 0 mm - 733 W/m² -
1788460060 20.56° C 34% 1016 hPa 0 mm - 743 W/m² -
1788459759 20.56° C 33% 1016 hPa 0 mm - 757 W/m² -
1788459459 20° C 35% 1016 hPa 0 mm - 774 W/m² -
1788459160 20° C 32% 1016 hPa 0 mm - 786 W/m² -
1788458861 20° C 31% 1016 hPa 0 mm - 806 W/m² -
1788458560 20° C 33% 1016 hPa 0 mm - 819 W/m² -
1788458259 20° C 35% 1016 hPa 0 mm - 826 W/m² -
1788457959 20° C 36% 1016 hPa 0 mm - 838 W/m² -
1788457659 20.56° C 33% 1016 hPa 0 mm - 853 W/m² -
1788457360 20° C 35% 1016 hPa 0 mm - 874 W/m² -
1788457060 20° C 37% 1016 hPa 0 mm - 880 W/m² -
1788456761 19.44° C 37% 1016 hPa 0 mm - 883 W/m² -
1788456460 19.44° C 35% 1016 hPa 0 mm - 888 W/m² -
1788456162 19.44° C 37% 1016 hPa 0 mm - 895 W/m² -
1788455860 18.33° C 39% 1016 hPa 0 mm - 927 W/m² -
1788455559 18.33° C 38% 1016 hPa 0 mm - 940 W/m² -
1788455259 18.33° C 40% 1016 hPa 0 mm - 991 W/m² -

* Rain latest hour (hover to see other rain measurements)
** Current wind speed in m/s (hover to see current wind gust speed)